Home   Weather   Ojinaga   Past weeks

Flag for Mexico Past Weather in Ojinaga, Chihuahua, Mexico — Yesterday and Last 2 Weeks

60 °F


Feels Like: 59 °F
Forecast: 57 / 86 °F
Wind: 7 mph from Southwest

Location: Alpine-Casparis Municipal Airport

Current Time: Oct 23, 2016 at 6:06:30 AM

Latest Report: Oct 23, 2016 at 5:35 AM

Visibility: 10 mi

Pressure: 30.24 "Hg (27.55 "Hg at 788m altitude)

Humidity: 59%

Dew Point: 46 °F

Location of OjinagaLocation

Past Weather in Ojinaga — Graph


Ojinaga Temperature Yesterday

Maximum temperature yesterday: 79 °F (at 4:15 PM)
Minimum temperature yesterday: 51 °F (at 5:15 AM)
Average temperature yesterday: 65 °F

High & Low Weather Summary for the Past Weeks

High90 °F (Oct 17, 2:55 PM)97% (Oct 8, 4:15 AM)30.48 "Hg (Oct 8, 4:15 AM)
Low40 °F (Oct 21, 6:55 AM)12% (Oct 19, 3:15 PM)29.98 "Hg (Oct 17, 5:15 PM)
Average67 °F56%30.24 "Hg
* Reported Oct 8 4:15 AM — Oct 23 4:55 AM, Ojinaga, Weather by CustomWeather, © 2016

Note: Actual official high and low records may vary slightly from our data, if they occured in-between our weather recording intervals... More about our weather records


Ojinaga Weather History for the Previous 24 Hours

Scroll right to see more
Time TempWeatherWind HumidityBarometerVisibility
4:55 AM
Sun, Oct 23
63 °FClear.5 mph53%30.23 "Hg10 mi
4:15 AM63 °FClear.7 mph51%30.23 "Hg10 mi
3:55 AM64 °FClear.7 mph50%30.22 "Hg10 mi
3:35 AM61 °FClear.6 mph55%30.22 "Hg10 mi
3:15 AM58 °FClear.No wind59%30.23 "Hg10 mi
2:55 AM60 °FClear.3 mph54%30.23 "Hg10 mi
2:35 AM65 °FClear.8 mph46%30.24 "Hg10 mi
2:15 AM65 °FClear.12 mph46%30.23 "Hg10 mi
1:55 AM64 °FClear.9 mph47%30.24 "Hg10 mi
1:35 AM64 °FClear.9 mph48%30.24 "Hg10 mi
1:15 AM64 °FClear.9 mph47%30.24 "Hg10 mi
12:55 AM60 °FClear.6 mph55%30.24 "Hg10 mi
12:35 AM59 °FClear.5 mph57%30.24 "Hg10 mi
12:15 AM57 °FClear.3 mph61%30.24 "Hg10 mi
11:55 PM
Sat, Oct 22
59 °FClear.6 mph59%30.23 "Hg10 mi
11:35 PM61 °FClear.8 mph55%30.23 "Hg10 mi
11:15 PM59 °FClear.6 mph59%30.24 "Hg10 mi
10:55 PM60 °FClear.7 mph57%30.24 "Hg10 mi
10:35 PM61 °FClear.5 mph55%30.24 "Hg10 mi
10:15 PM60 °FClear.6 mph55%30.24 "Hg10 mi
9:55 PM61 °FClear.5 mph54%30.24 "Hg10 mi
9:15 PM65 °FClear.9 mph46%30.23 "Hg10 mi
8:55 PM66 °FClear.9 mph45%30.22 "Hg10 mi
8:35 PM67 °FClear.12 mph44%30.22 "Hg10 mi
8:15 PM67 °FClear.13 mph41%30.21 "Hg10 mi
7:55 PM66 °FClear.7 mph43%30.21 "Hg10 mi
7:15 PM66 °FClear.6 mph43%30.20 "Hg10 mi
6:55 PM65 °FClear.6 mph44%30.20 "Hg10 mi
6:35 PM69 °FClear.6 mph40%30.19 "Hg10 mi
6:15 PM72 °FClear.8 mph35%30.19 "Hg10 mi
5:55 PM74 °FSunny.8 mph34%30.19 "Hg10 mi
5:35 PM76 °FSunny.8 mph32%30.19 "Hg10 mi
5:15 PM77 °FSunny.9 mph31%30.18 "Hg10 mi
4:55 PM78 °FSunny.9 mph30%30.18 "Hg10 mi
4:15 PM79 °FSunny.8 mph28%30.19 "Hg10 mi
3:55 PM79 °FSunny.10 mph29%30.19 "Hg10 mi
3:35 PM79 °FSunny.12 mph29%30.19 "Hg10 mi
3:15 PM78 °FSunny.7 mph30%30.19 "Hg10 mi
2:55 PM79 °FSunny.13 mph30%30.19 "Hg10 mi
2:35 PM78 °FSunny.6 mph31%30.20 "Hg10 mi
2:15 PM78 °FSunny.9 mph31%30.20 "Hg10 mi
1:55 PM78 °FSunny.6 mph32%30.21 "Hg10 mi
1:35 PM78 °FSunny.12 mph32%30.22 "Hg10 mi
1:15 PM78 °FSunny.9 mph32%30.23 "Hg10 mi
12:55 PM75 °FSunny.10 mph35%30.24 "Hg10 mi
12:35 PM76 °FSunny.10 mph34%30.25 "Hg10 mi
12:15 PM76 °FSunny.10 mph32%30.26 "Hg10 mi
11:55 AM76 °FSunny.9 mph33%30.27 "Hg10 mi
11:35 AM75 °FSunny.6 mph33%30.28 "Hg10 mi
11:15 AM74 °FSunny.8 mph35%30.28 "Hg10 mi
10:55 AM73 °FSunny.8 mph37%30.28 "Hg10 mi
10:35 AM74 °FSunny.10 mph40%30.29 "Hg10 mi
10:15 AM73 °FSunny.13 mph41%30.29 "Hg10 mi
9:55 AM71 °FSunny.9 mph42%30.29 "Hg10 mi
9:35 AM70 °FSunny.7 mph42%30.29 "Hg10 mi
9:15 AM69 °FSunny.7 mph43%30.29 "Hg10 mi
8:55 AM66 °FSunny.5 mph46%30.28 "Hg10 mi
8:35 AM65 °FSunny.7 mph48%30.28 "Hg10 mi
8:15 AM62 °FSunny.7 mph51%30.28 "Hg10 mi
7:55 AM59 °FSunny.8 mph57%30.27 "Hg10 mi
7:35 AM55 °FSunny.8 mph63%30.27 "Hg10 mi
7:15 AM53 °FSunny.8 mph67%30.26 "Hg10 mi
6:55 AM51 °FClear.9 mph71%30.26 "Hg10 mi
6:35 AM51 °FClear.8 mph69%30.26 "Hg10 mi
6:15 AM53 °FClear.8 mph65%30.25 "Hg10 mi
Weather by CustomWeather, © 2016

See weather overviewHow to use our weather pages